| time (UTC) | temp F | wind direction | speed MPH | gust MPH | rain 1hr in | rain 24hr in | rain mn in | humidity % | barometer mb |
| 20260506090952 | 57 | 67 | 0.0 | 0.0 | 0.02 | 0.52 | 0.00 | 84 | 1006.9 |
| 20260506085952 | 55 | 337 | 0.0 | 0.0 | 0.00 | 0.50 | 0.00 | 85 | 1006.8 |
| 20260506084952 | 55 | 247 | 0.0 | 0.0 | 0.00 | 0.50 | 0.00 | 85 | 1006.8 |
| 20260506083953 | 55 | 180 | 0.0 | 4.0 | 0.00 | 0.50 | 0.00 | 85 | 1006.7 |
| 20260506082953 | 55 | 337 | 0.0 | 0.0 | 0.00 | 0.50 | 0.00 | 86 | 1006.6 |
| 20260506081953 | 55 | 337 | 0.0 | 0.0 | 0.00 | 0.50 | 0.00 | 88 | 1006.6 |
| 20260506080953 | 55 | 337 | 0.0 | 0.0 | 0.00 | 0.50 | 0.00 | 89 | 1006.7 |
| 20260506072953 | 53 | 337 | 0.0 | 0.0 | 0.00 | 0.50 | 0.00 | 92 | 1006.7 |
| 20260506071953 | 53 | 202 | 0.0 | 0.0 | 0.00 | 0.50 | 0.00 | 93 | 1006.6 |
| 20260506070953 | 52 | 225 | 0.0 | 4.0 | 0.00 | 0.50 | 0.00 | 94 | 1006.6 |
| 20260506061953 | 49 | 180 | 0.0 | 0.0 | 0.00 | 0.50 | 0.00 | 94 | 1006.5 |
| 20260506060953 | 49 | 247 | 0.0 | 0.0 | 0.02 | 0.50 | 0.00 | 94 | 1006.4 |
| 20260506050953 | 48 | 202 | 0.0 | 0.0 | 0.00 | 0.48 | 0.00 | 94 | 1006.5 |
| 20260506044953 | 48 | 247 | 0.0 | 0.0 | 0.00 | 0.48 | 0.00 | 94 | 1006.4 |
| 20260506043953 | 48 | 202 | 0.0 | 0.0 | 0.00 | 0.48 | 0.00 | 94 | 1006.6 |
| 20260506042953 | 48 | 202 | 0.0 | 0.0 | 0.00 | 0.48 | 0.00 | 94 | 1006.4 |
| 20260506041953 | 48 | 202 | 0.0 | 0.0 | 0.00 | 0.48 | 0.00 | 94 | 1006.5 |
| 20260506040953 | 48 | 202 | 0.0 | 0.0 | 0.00 | 0.48 | 0.00 | 94 | 1006.6 |
| 20260506035953 | 48 | 247 | 0.0 | 0.0 | 0.00 | 0.48 | 0.00 | 94 | 1006.6 |
| 20260506034953 | 48 | 22 | 0.0 | 0.0 | 0.00 | 0.48 | 0.00 | 94 | 1006.5 |
| 20260506033953 | 48 | 112 | 0.0 | 0.0 | 0.00 | 0.48 | 0.00 | 94 | 1006.5 |
| 20260506032954 | 48 | 337 | 0.0 | 0.0 | 0.00 | 0.48 | 0.00 | 94 | 1006.8 |
| 20260506031954 | 48 | 337 | 0.0 | 0.0 | 0.00 | 0.48 | 0.00 | 94 | 1006.7 |
| 20260506030954 | 48 | 337 | 0.0 | 0.0 | 0.00 | 0.48 | 0.00 | 94 | 1006.7 |
| 20260506025954 | 48 | 112 | 0.0 | 0.0 | 0.00 | 0.48 | 0.00 | 94 | 1006.8 |
| 20260506024954 | 48 | 67 | 0.0 | 0.0 | 0.00 | 0.48 | 0.00 | 94 | 1006.7 |
| 20260506023954 | 48 | 112 | 0.0 | 0.0 | 0.00 | 0.48 | 0.00 | 94 | 1006.8 |
| 20260506022954 | 48 | 202 | 0.0 | 0.0 | 0.00 | 0.48 | 0.00 | 94 | 1006.8 |
| 20260506021954 | 48 | 225 | 0.0 | 0.0 | 0.00 | 0.48 | 0.00 | 94 | 1006.9 |
| 20260506020954 | 48 | 247 | 0.0 | 0.0 | 0.00 | 0.48 | 0.00 | 94 | 1007.2 |
| 20260506015954 | 48 | 202 | 0.0 | 0.0 | 0.00 | 0.48 | 0.00 | 94 | 1007.1 |
| 20260506014954 | 48 | 22 | 0.0 | 0.0 | 0.00 | 0.48 | 0.00 | 94 | 1007.1 |
| 20260506013954 | 48 | 202 | 0.0 | 0.0 | 0.00 | 0.48 | 0.00 | 94 | 1007.3 |
| 20260506012954 | 48 | 67 | 0.0 | 0.0 | 0.00 | 0.48 | 0.00 | 94 | 1007.3 |
| 20260506011954 | 49 | 247 | 0.0 | 0.0 | 0.00 | 0.48 | 0.00 | 94 | 1007.4 |
| 20260506010954 | 49 | 202 | 0.0 | 0.0 | 0.00 | 0.48 | 0.00 | 94 | 1007.4 |
| 20260506005954 | 49 | 247 | 0.0 | 0.0 | 0.00 | 0.48 | 0.00 | 94 | 1007.2 |
| 20260506004954 | 49 | 225 | 0.0 | 0.0 | 0.00 | 0.48 | 0.00 | 94 | 1007.4 |
| 20260506003954 | 49 | 67 | 0.0 | 0.0 | 0.00 | 0.48 | 0.00 | 94 | 1007.4 |
| 20260506002954 | 49 | 67 | 0.0 | 0.0 | 0.00 | 0.48 | 0.00 | 94 | 1007.3 |
| 20260506001954 | 49 | 180 | 0.0 | 0.0 | 0.00 | 0.48 | 0.00 | 94 | 1007.6 |
| 20260506000954 | 49 | 270 | 0.0 | 0.0 | 0.00 | 0.48 | 0.00 | 94 | 1007.7 |
| 20260505235954 | 50 | 90 | 0.0 | 0.0 | 0.00 | 0.48 | 0.00 | 94 | 1007.7 |
| 20260505234954 | 50 | 247 | 0.0 | 0.0 | 0.00 | 0.48 | 0.00 | 94 | 1007.6 |
| 20260505233954 | 50 | 225 | 0.0 | 0.0 | 0.00 | 0.48 | 0.00 | 94 | 1007.8 |
| 20260505232954 | 50 | 135 | 0.0 | 0.0 | 0.00 | 0.48 | 0.00 | 94 | 1007.9 |
| 20260505231954 | 50 | 225 | 0.0 | 5.0 | 0.00 | 0.48 | 0.00 | 94 | 1007.9 |
| 20260505230954 | 50 | 225 | 0.0 | 4.0 | 0.00 | 0.48 | 0.00 | 94 | 1008.0 |
| 20260505225954 | 50 | 202 | 0.0 | 0.0 | 0.00 | 0.48 | 0.00 | 93 | 1008.0 |
| 20260505224954 | 50 | 247 | 0.0 | 4.0 | 0.00 | 0.48 | 0.00 | 93 | 1008.0 |
| 20260505223954 | 51 | 180 | 0.0 | 4.0 | 0.00 | 0.48 | 0.00 | 93 | 1008.1 |
| 20260505222954 | 51 | 247 | 3.0 | 5.0 | 0.00 | 0.48 | 0.00 | 93 | 1008.0 |
| 20260505221954 | 51 | 225 | 0.0 | 0.0 | 0.00 | 0.48 | 0.00 | 93 | 1008.1 |
| 20260505220955 | 51 | 180 | 0.0 | 0.0 | 0.00 | 0.48 | 0.00 | 93 | 1008.1 |
| 20260505215955 | 51 | 247 | 0.0 | 0.0 | 0.00 | 0.48 | 0.00 | 93 | 1008.2 |
| 20260505214955 | 51 | 225 | 0.0 | 0.0 | 0.00 | 0.48 | 0.00 | 93 | 1008.4 |
| 20260505213955 | 51 | 225 | 0.0 | 0.0 | 0.00 | 0.48 | 0.00 | 93 | 1008.5 |
| 20260505212955 | 51 | 225 | 0.0 | 0.0 | 0.00 | 0.48 | 0.00 | 93 | 1008.5 |
| 20260505211955 | 51 | 202 | 0.0 | 0.0 | 0.00 | 0.48 | 0.00 | 93 | 1008.6 |
| 20260505210955 | 51 | 180 | 0.0 | 0.0 | 0.00 | 0.48 | 0.00 | 93 | 1008.6 |
| 20260505205955 | 51 | 202 | 0.0 | 0.0 | 0.00 | 0.48 | 0.00 | 93 | 1008.7 |
| 20260505204955 | 51 | 202 | 0.0 | 0.0 | 0.00 | 0.48 | 0.00 | 93 | 1008.8 |
| 20260505203955 | 51 | 180 | 0.0 | 0.0 | 0.00 | 0.48 | 0.00 | 93 | 1008.7 |
| 20260505202955 | 51 | 202 | 0.0 | 0.0 | 0.02 | 0.48 | 0.00 | 93 | 1008.8 |
| 20260505201955 | 51 | 45 | 0.0 | 0.0 | 0.02 | 0.48 | 0.00 | 93 | 1008.7 |
| 20260505200955 | 51 | 202 | 0.0 | 0.0 | 0.02 | 0.48 | 0.00 | 93 | 1008.8 |
| 20260505195955 | 51 | 90 | 0.0 | 0.0 | 0.02 | 0.57 | 0.00 | 93 | 1008.7 |
| 20260505194955 | 51 | 90 | 0.0 | 0.0 | 0.02 | 0.57 | 0.00 | 93 | 1008.7 |
| 20260505193955 | 51 | 90 | 0.0 | 0.0 | 0.02 | 0.57 | 0.00 | 93 | 1008.6 |
| 20260505192955 | 51 | 157 | 0.0 | 0.0 | 0.18 | 0.55 | 0.00 | 93 | 1008.6 |
| 20260505191955 | 51 | 157 | 0.0 | 0.0 | 0.18 | 0.55 | 0.00 | 92 | 1008.6 |
| 20260505190955 | 51 | 157 | 0.0 | 0.0 | 0.22 | 0.55 | 0.00 | 92 | 1008.7 |
| 20260505185955 | 51 | 202 | 0.0 | 0.0 | 0.32 | 0.81 | 0.00 | 92 | 1008.6 |
| 20260505184955 | 51 | 202 | 0.0 | 0.0 | 0.34 | 0.81 | 0.00 | 92 | 1008.6 |
| 20260505183955 | 51 | 247 | 0.0 | 0.0 | 0.16 | 0.63 | 0.00 | 92 | 1008.7 |
| 20260505182955 | 52 | 225 | 0.0 | 0.0 | 0.16 | 0.63 | 0.00 | 92 | 1008.7 |
| 20260505181955 | 52 | 202 | 0.0 | 0.0 | 0.16 | 0.63 | 0.00 | 91 | 1008.6 |
| 20260505180955 | 53 | 225 | 0.0 | 4.0 | 0.10 | 0.57 | 0.00 | 92 | 1008.8 |
| 20260505175955 | 53 | 202 | 0.0 | 0.0 | 0.02 | 0.48 | 0.00 | 92 | 1008.8 |
| 20260505174955 | 53 | 247 | 0.0 | 0.0 | 0.00 | 0.46 | 0.00 | 91 | 1008.7 |
| 20260505173955 | 53 | 180 | 0.0 | 0.0 | 0.02 | 0.46 | 0.00 | 91 | 1008.8 |
| 20260505172955 | 53 | 0 | 0.0 | 0.0 | 0.02 | 0.46 | 0.00 | 91 | 1008.9 |
| 20260505171955 | 53 | 315 | 0.0 | 0.0 | 0.02 | 0.46 | 0.00 | 91 | 1008.9 |
| 20260505170956 | 53 | 22 | 0.0 | 0.0 | 0.02 | 0.46 | 0.00 | 90 | 1008.9 |
| 20260505165956 | 53 | 67 | 0.0 | 0.0 | 0.04 | 0.46 | 0.00 | 90 | 1009.0 |
| 20260505164956 | 53 | 90 | 0.0 | 0.0 | 0.02 | 0.44 | 0.00 | 90 | 1009.1 |
| 20260505163956 | 54 | 202 | 0.0 | 0.0 | 0.02 | 0.44 | 0.00 | 90 | 1009.1 |
| 20260505162956 | 54 | 202 | 0.0 | 0.0 | 0.02 | 0.44 | 0.00 | 90 | 1009.2 |
| 20260505161956 | 54 | 202 | 0.0 | 0.0 | 0.04 | 0.44 | 0.00 | 90 | 1009.3 |
| 20260505160956 | 54 | 180 | 0.0 | 0.0 | 0.04 | 0.44 | 0.00 | 89 | 1009.3 |
| 20260505152956 | 55 | 247 | 0.0 | 4.0 | 0.02 | 0.40 | 0.00 | 88 | 1009.4 |
| 20260505151956 | 55 | 157 | 0.0 | 0.0 | 0.04 | 0.40 | 0.00 | 87 | 1009.4 |
| 20260505150956 | 56 | 270 | 0.0 | 0.0 | 0.04 | 0.40 | 0.00 | 87 | 1009.4 |
| 20260505124956 | 69 | 90 | 0.0 | 0.0 | 0.00 | 0.46 | 0.00 | 63 | 1009.8 |
| 20260505123956 | 66 | 112 | 0.0 | 0.0 | 0.00 | 0.46 | 0.00 | 71 | 1010.0 |
| 20260505122956 | 60 | 90 | 0.0 | 0.0 | 0.00 | 0.46 | 0.00 | 76 | 1010.0 |
| 20260505121956 | 58 | 112 | 0.0 | 0.0 | 0.00 | 0.46 | 0.00 | 75 | 1010.2 |
| 20260505120956 | 59 | 67 | 0.0 | 0.0 | 0.00 | 0.46 | 0.00 | 72 | 1010.2 |
| 20260505115956 | 61 | 247 | 0.0 | 0.0 | 0.00 | 0.46 | 0.00 | 66 | 1010.2 |
| 20260505114957 | 63 | 202 | 0.0 | 0.0 | 0.00 | 0.46 | 0.00 | 63 | 1010.2 |
| 20260505113957 | 64 | 202 | 0.0 | 0.0 | 0.00 | 0.46 | 0.00 | 61 | 1010.3 |
| 20260505112957 | 64 | 202 | 0.0 | 0.0 | 0.00 | 0.46 | 0.00 | 60 | 1010.3 |
| 20260505111957 | 66 | 225 | 0.0 | 0.0 | 0.00 | 0.46 | 0.00 | 58 | 1010.5 |
| 20260505110957 | 67 | 202 | 0.0 | 0.0 | 0.00 | 0.46 | 0.00 | 55 | 1010.5 |
| 20260505101957 | 72 | 45 | 0.0 | 0.0 | 0.00 | 0.46 | 0.00 | 55 | 1010.8 |
| 20260505100957 | 70 | 157 | 0.0 | 0.0 | 0.00 | 0.46 | 0.00 | 56 | 1010.8 |
| 20260505095957 | 71 | 337 | 0.0 | 0.0 | 0.00 | 0.46 | 0.00 | 56 | 1010.8 |
| 20260505094957 | 70 | 67 | 0.0 | 0.0 | 0.00 | 0.46 | 0.00 | 59 | 1011.1 |
| 20260505093957 | 68 | 202 | 0.0 | 4.0 | 0.00 | 0.46 | 0.00 | 61 | 1011.1 |
| 20260505092957 | 68 | 270 | 0.0 | 0.0 | 0.00 | 0.46 | 0.00 | 63 | 1011.2 |
| 20260505091957 | 68 | 90 | 0.0 | 0.0 | 0.00 | 0.46 | 0.00 | 65 | 1011.2 |